Regional Weather Roundup
Issued by NWS Upton, NY

Current Version | Previous Version | Graphics & Text | Print | Product List | Glossary Off
Versions: 1 2 3 4 5 6 7 8 9 10 11 12 13 14 15 16 17 18 19 20 21 22 23 24 25 26 27 28 29 30 31 32 33 34 35 36 37 38 39 40 41 42 43 44 45 46 47

000
ASUS41 KOKX 221005
RWROKX

REGIONAL WEATHER ROUNDUP
NATIONAL WEATHER SERVICE NEW YORK NY
500 AM EST MON DEC 22 2014

NOTE: "FAIR" INDICATES FEW OR NO CLOUDS BELOW 12,000 FEET WITH NO
SIGNIFICANT WEATHER AND/OR OBSTRUCTIONS TO VISIBILITY.

NYZ071-072-176-178-NJZ106-104-221100-
NEW YORK CITY METRO AREA


CITY           SKY/WX    TMP DP  RH WIND       PRES   REMARKS
CENTRAL PARK   CLOUDY    36  30  79 VRB3      30.34S
LAGUARDIA APRT CLOUDY    36  31  82 N3        30.32S
KENNEDY INTL   CLOUDY    38  33  82 N6        30.33S WCI  33
NEWARK/LIBERTY CLOUDY    35  30  82 N6        30.32F WCI  30
BRNX BOT. GARD   N/A     34  32  93 N6        30.34S WCI  29
TETERBORO      FLURRIES  35  29  78 N5        30.32S WCI  31
$$

NYZ177-179-078>081-221100-
LONG ISLAND NEW YORK

CITY           SKY/WX    TMP DP  RH WIND       PRES   REMARKS
FARMINGDALE    CLOUDY    38  35  89 N6        30.31F WCI  33
ISLIP          CLOUDY    38  34  85 N8        30.29F WCI  32
SHIRLEY        CLOUDY    38  35  89 NE6       30.31F WCI  33
WESTHAMPTON    CLOUDY    37  35  92 N6        30.32S WCI  32
MONTAUK POINT    N/A     41  37  86 NE8       30.32S
$$

NYZ052-065-067-221100-
HUDSON VALLEY

CITY           SKY/WX    TMP DP  RH WIND       PRES   REMARKS
WHITE PLAINS   CLOUDY    33  31  92 N5        30.30S WCI  29
NEWBURGH       CLOUDY    30  28  93 CALM      30.33S
MONTGOMERY     LGT SNOW  31  28  89 NE5       30.32S FOG     WCI  26
POUGHKEEPSIE   CLOUDY    32  27  81 N3        30.34S
ALBANY         FLURRIES  29  24  82 N5        30.36S WCI  24
$$

NJZ001-105-106-008-010-013-015-019>022-104-221100-
NEW JERSEY

CITY           SKY/WX    TMP DP  RH WIND       PRES   REMARKS
NEWARK/LIBERTY CLOUDY    35  30  82 N6        30.32F WCI  30
TETERBORO      FLURRIES  35  29  78 N5        30.32S WCI  31
CALDWELL       CLOUDY    33  28  81 NE3       30.33S
MORRISTOWN     CLOUDY    36  30  80 CALM      30.32S
SOMERVILLE     CLOUDY    35  28  75 CALM      30.30F
SUSSEX         CLOUDY    31  26  82 NE6       30.31S WCI  25
ANDOVER          N/A     31  27  85 VRB3      30.31S
TRENTON        CLOUDY    34  27  75 N3        30.30F
MILLVILLE      CLOUDY    24  22  91 CALM      30.30F
ATLANTIC CITY  MOCLDY    26  22  84 CALM      30.30F
WRIGHTSTOWN    CLOUDY    34  28  80 N3        30.28F
TOMS RIVER     CLOUDY    34  28  80 N5        30.31F WCI  30
BELMAR         CLOUDY    36  28  75 N3        30.30F
$$

PAZ047>061-062-071-221100-
EASTERN PENNSYLVANIA

CITY           SKY/WX    TMP DP  RH WIND       PRES   REMARKS
PHILADELPHIA   MOCLDY    29  23  78 NW6       30.32F WCI  23
ALLENTOWN      CLOUDY    30  24  78 CALM      30.30F
SCRANTON       CLOUDY    31  22  69 E3        30.26F
$$

CTZ002-004>006-009-010-012-RIZ004-006-007-MAZ004-011-015-221100-
SOUTHERN NEW ENGLAND
 IN CT

CITY           SKY/WX    TMP DP  RH WIND       PRES   REMARKS
BRADLEY INTL   CLOUDY    34  30  85 N6        30.34S WCI  29
HARTFORD       CLOUDY    34  30  85 VRB6      30.35S WCI  29
DANBURY        CLOUDY    33  29  85 N3        30.32F FOG
WTRBRY/OXFORD  CLOUDY    32  27  80 NE5       30.31S WCI  27
BRIDGEPORT     CLOUDY    36  33  89 N7        30.33S WCI  30
MERIDEN        CLOUDY    34  30  85 N6        30.34S WCI  29
NEW HAVEN      CLOUDY    37  32  82 N8        30.32F WCI  31
CHESTER        CLOUDY    34  32  93 N6        30.32S WCI  29
GROTON         CLOUDY    34  32  92 N10       30.32S WCI  26
WILLIMANTIC    CLOUDY    34  29  82 N5        30.34S WCI  30

 IN RI

CITY           SKY/WX    TMP DP  RH WIND       PRES   REMARKS
PROVIDENCE     CLOUDY    34  29  82 N5        30.35R WCI  30
BLOCK ISLAND   CLOUDY    39  34  81 NE7       30.31S WCI  34
WESTERLY       CLOUDY    36  32  85 N6        30.33S WCI  31

 IN MA

CITY           SKY/WX    TMP DP  RH WIND       PRES   REMARKS
BOSTON         CLOUDY    33  27  78 N6        30.36R WCI  28
WORCESTER      CLOUDY    30  25  81 NE7       30.31S WCI  23
WESTFIELD      CLOUDY    33  30  88 N5        30.35R WCI  29
PROVINCETOWN   CLOUDY    39  36  87 NE5       30.33S
NANTUCKET      CLOUDY    41  37  86 N5        30.31R
$$

ANZ330-335-338-340-345-350-353-355-221100-
COASTAL MARINE OBSERVATIONS


STATION/POSITION TIME  SKY/WX   TEMP    WIND        PRES    VSBY  WAVE
                                AIR SEA DIR/SP/G                  HT/PER
                 (UTC)          (F)     (DEG/KT/KT) (MB)    (MI)  (FT/S)
NY HARB ENTRANCE 1000            38 46   20/  6/  8 1026.7          2/ 5
4S FIRE IS       1000               47                N/A           3/ 5
20S FIRE ISLAND  0900            42 49              1026.4          3/ 6
23SW MTP         1000                                 N/A           4/ 5
HUDSON CANYON    1000            45 55  290/  2/  4 1025.3          2/ 8
EXECUTION ROCKS  1000            37 41  360/  6/ 10   N/A
WESTERN LI SOUND 1000            37      10/  6/  8   N/A           1
CENTRAL LI SOUND 0900            37 44   30/ 10/ 12   N/A           1/ 3
EASTERN LI SOUND NOT AVBL
ROBBINS REEF     1000            35     300/  6/  6 1025.5
$$


>>>>>>>>>>>>>>>>>>>>>>>>>>>> KEY <<<<<<<<<<<<<<<<<<<<<<<<<<<
>                                                          <
>     SKY/WX - SKY CONDITION/PRESENT WEATHER               <
>     TMP    - TEMPERATURE IN FAHRENHEIT                   <
>     DP     - DEWPOINT IN FAHRENHEIT                      <
>     RH     - RELATIVE HUMIDITY IN PERCENT                <
>     WIND   - DIRECTION AND SPEED IN MPH                  <
>     PRES   - MEAN SEA LEVEL PRESSURE IN INCHES OF HG     <
>     WCI    - WIND CHILL INDEX                            <
>     VSB    - VISIBILITY IN MILES                         <
>     HX     - HEAT INDEX                                  <
>     TC     - TEMPERATURE IN CELSIUS                      <
>     VRB    - VARIABLE WIND DIRECTION                     <
>                                                          <
>>>>>>>>>>>>>>>>>>>>>>>>>>>> KEY <<<<<<<<<<<<<<<<<<<<<<<<<<<





USA.gov is the U.S. government's official web portal to all federal, state and local government web resources and services.